contact:dominique.lefevre@mio.osupytheas.fr, maurice.libes@osupytheas.fr, didier.mallarino@osupytheas.fr
Project:EMSO http://www.emso-fr.org/EMSO-France
Depth: 2436.0 m
Title:EMSO Ligure Ouest : Data MII capteur MICROCAT
DateTime_Computer,Latitude,Longitude,Temperature,Conductivity,Pressure,DateTime_Instrument
DateTime_Computer,Latitude,Longitude,degC,S m-1,dbar,DateTime_Instrument
2021-05-02T00:02:01Z,42.805,6.029,13.2980,4.59986,2470.053,2021-5-02T02:03:11Z
2021-05-02T00:05:04Z,42.805,6.029,13.2982,4.59986,2470.04,2021-5-02T02:06:14Z
2021-05-02T00:08:07Z,42.805,6.029,13.2979,4.59986,2470.04,2021-5-02T02:09:17Z
2021-05-02T00:11:11Z,42.805,6.029,13.2976,4.59986,2470.053,2021-5-02T02:12:21Z
2021-05-02T00:14:14Z,42.805,6.029,13.2983,4.59986,2470.04,2021-5-02T02:15:24Z
2021-05-02T00:17:17Z,42.805,6.029,13.2979,4.59986,2470.04,2021-5-02T02:18:27Z
2021-05-02T00:20:20Z,42.805,6.029,13.2979,4.59986,2470.053,2021-5-02T02:21:30Z
2021-05-02T00:23:23Z,42.805,6.029,13.2984,4.59986,2470.053,2021-5-02T02:24:33Z
2021-05-02T00:26:26Z,42.805,6.029,13.2981,4.59986,2470.04,2021-5-02T02:27:36Z
2021-05-02T00:29:29Z,42.805,6.029,13.2979,4.59985,2470.053,2021-5-02T02:30:39Z
2021-05-02T00:32:32Z,42.805,6.029,13.2983,4.59986,2470.04,2021-5-02T02:33:42Z
2021-05-02T00:35:36Z,42.805,6.029,13.2981,4.59986,2470.03,2021-5-02T02:36:46Z
2021-05-02T00:38:39Z,42.805,6.029,13.2982,4.59986,2470.04,2021-5-02T02:39:49Z
2021-05-02T00:41:42Z,42.805,6.029,13.2981,4.59986,2470.053,2021-5-02T02:42:52Z
2021-05-02T00:44:45Z,42.805,6.029,13.2979,4.59985,2469.993,2021-5-02T02:45:55Z
2021-05-02T00:47:48Z,42.805,6.029,13.2982,4.59985,2470.04,2021-5-02T02:48:58Z
2021-05-02T00:50:51Z,42.805,6.029,13.2979,4.59987,2470.04,2021-5-02T02:52:01Z
2021-05-02T00:53:54Z,42.805,6.029,13.2979,4.59986,2470.053,2021-5-02T02:55:04Z
2021-05-02T00:56:57Z,42.805,6.029,13.2979,4.59986,2469.993,2021-5-02T02:58:07Z
2021-05-02T01:00:00Z,42.805,6.029,13.2982,4.59986,2470.04,2021-5-02T03:01:10Z
2021-05-02T01:03:04Z,42.805,6.029,13.2985,4.59986,2470.017,2021-5-02T03:04:14Z
2021-05-02T01:06:07Z,42.805,6.029,13.2983,4.59986,2470.007,2021-5-02T03:07:17Z
2021-05-02T01:09:10Z,42.805,6.029,13.2980,4.59985,2470.007,2021-5-02T03:10:20Z
2021-05-02T01:12:13Z,42.805,6.029,13.2982,4.59985,2470.017,2021-5-02T03:13:23Z
2021-05-02T01:15:16Z,42.805,6.029,13.2982,4.59986,2469.993,2021-5-02T03:16:26Z
2021-05-02T01:18:19Z,42.805,6.029,13.2976,4.59986,2470.017,2021-5-02T03:19:29Z
2021-05-02T01:21:22Z,42.805,6.029,13.2979,4.59985,2469.984,2021-5-02T03:22:32Z
2021-05-02T01:24:25Z,42.805,6.029,13.2978,4.59986,2469.984,2021-5-02T03:25:35Z
2021-05-02T01:27:29Z,42.805,6.029,13.2980,4.59985,2469.993,2021-5-02T03:28:39Z
2021-05-02T01:30:32Z,42.805,6.029,13.2982,4.59986,2469.97,2021-5-02T03:31:42Z
2021-05-02T01:33:48Z,42.805,6.029,13.2982,4.59985,2469.993,2021-5-02T03:34:45Z
2021-05-02T01:36:39Z,42.805,6.029,13.2984,4.59985,2470.007,2021-5-02T03:37:49Z
2021-05-02T01:39:42Z,42.805,6.029,13.2981,4.59986,2469.993,2021-5-02T03:40:52Z
2021-05-02T01:42:45Z,42.805,6.029,13.2980,4.59986,2469.984,2021-5-02T03:43:55Z
2021-05-02T01:45:48Z,42.805,6.029,13.2979,4.59986,2469.993,2021-5-02T03:46:58Z
2021-05-02T01:48:52Z,42.805,6.029,13.2978,4.59985,2469.984,2021-5-02T03:50:02Z
2021-05-02T01:51:55Z,42.805,6.029,13.2981,4.59986,2469.984,2021-5-02T03:53:05Z
2021-05-02T01:54:58Z,42.805,6.029,13.2983,4.59985,2469.97,2021-5-02T03:56:08Z
2021-05-02T01:58:01Z,42.805,6.029,13.2982,4.59986,2469.993,2021-5-02T03:59:11Z
2021-05-02T02:01:04Z,42.805,6.029,13.2979,4.59986,2469.947,2021-5-02T04:02:14Z
2021-05-02T02:04:07Z,42.805,6.029,13.2980,4.59986,2469.947,2021-5-02T04:05:17Z
2021-05-02T02:07:10Z,42.805,6.029,13.2982,4.59985,2469.97,2021-5-02T04:08:20Z
2021-05-02T02:10:13Z,42.805,6.029,13.2984,4.59986,2469.984,2021-5-02T04:11:23Z
2021-05-02T02:13:16Z,42.805,6.029,13.2984,4.59986,2469.96,2021-5-02T04:14:26Z
2021-05-02T02:16:20Z,42.805,6.029,13.2979,4.59986,2470.03,2021-5-02T04:17:30Z
2021-05-02T02:19:23Z,42.805,6.029,13.2979,4.59986,2469.984,2021-5-02T04:20:33Z
2021-05-02T02:22:26Z,42.805,6.029,13.2980,4.59986,2469.96,2021-5-02T04:23:36Z
2021-05-02T02:25:29Z,42.805,6.029,13.2979,4.59986,2469.96,2021-5-02T04:26:39Z
2021-05-02T02:28:32Z,42.805,6.029,13.2979,4.59986,2469.947,2021-5-02T04:29:42Z
2021-05-02T02:31:35Z,42.805,6.029,13.2980,4.59986,2469.97,2021-5-02T04:32:45Z
2021-05-02T02:34:38Z,42.805,6.029,13.2979,4.59987,2470.007,2021-5-02T04:35:48Z
2021-05-02T02:37:41Z,42.805,6.029,13.2982,4.59986,2469.947,2021-5-02T04:38:51Z
2021-05-02T02:40:45Z,42.805,6.029,13.2979,4.59986,2469.97,2021-5-02T04:41:55Z
2021-05-02T02:43:48Z,42.805,6.029,13.2983,4.59986,2469.933,2021-5-02T04:44:58Z
2021-05-02T02:46:51Z,42.805,6.029,13.2980,4.59986,2469.984,2021-5-02T04:48:01Z
2021-05-02T02:49:54Z,42.805,6.029,13.2982,4.59986,2469.947,2021-5-02T04:51:04Z
2021-05-02T02:52:57Z,42.805,6.029,13.2980,4.59986,2469.984,2021-5-02T04:54:07Z
2021-05-02T02:56:00Z,42.805,6.029,13.2982,4.59986,2469.96,2021-5-02T04:57:10Z
2021-05-02T02:59:03Z,42.805,6.029,13.2982,4.59986,2469.947,2021-5-02T05:00:13Z
2021-05-02T03:02:06Z,42.805,6.029,13.2978,4.59986,2469.914,2021-5-02T05:03:16Z
2021-05-02T03:05:09Z,42.805,6.029,13.2985,4.59986,2469.923,2021-5-02T05:06:19Z
2021-05-02T03:08:13Z,42.805,6.029,13.2981,4.59986,2469.96,2021-5-02T05:09:23Z
2021-05-02T03:11:16Z,42.805,6.029,13.2985,4.59987,2469.937,2021-5-02T05:12:26Z
2021-05-02T03:14:19Z,42.805,6.029,13.2982,4.59986,2469.947,2021-5-02T05:15:29Z
2021-05-02T03:17:22Z,42.805,6.029,13.2979,4.59986,2469.96,2021-5-02T05:18:32Z
2021-05-02T03:20:25Z,42.805,6.029,13.2979,4.59986,2469.9,2021-5-02T05:21:35Z
2021-05-02T03:23:28Z,42.805,6.029,13.2980,4.59987,2469.914,2021-5-02T05:24:38Z
2021-05-02T03:26:31Z,42.805,6.029,13.2979,4.59986,2469.923,2021-5-02T05:27:41Z
2021-05-02T03:29:34Z,42.805,6.029,13.2982,4.59986,2469.9,2021-5-02T05:30:44Z
2021-05-02T03:32:38Z,42.805,6.029,13.2982,4.59986,2469.923,2021-5-02T05:33:47Z
2021-05-02T03:35:41Z,42.805,6.029,13.2984,4.59986,2469.947,2021-5-02T05:36:51Z
2021-05-02T03:38:44Z,42.805,6.029,13.2983,4.59986,2469.9,2021-5-02T05:39:54Z
2021-05-02T03:41:47Z,42.805,6.029,13.2980,4.59988,2469.914,2021-5-02T05:42:57Z
2021-05-02T03:44:50Z,42.805,6.029,13.2983,4.59987,2469.9,2021-5-02T05:46:00Z
2021-05-02T03:47:53Z,42.805,6.029,13.2981,4.59985,2469.9,2021-5-02T05:49:03Z
2021-05-02T03:50:56Z,42.805,6.029,13.2981,4.59986,2469.89,2021-5-02T05:52:06Z
2021-05-02T03:53:59Z,42.805,6.029,13.2980,4.59986,2469.947,2021-5-02T05:55:09Z
2021-05-02T03:57:02Z,42.805,6.029,13.2980,4.59987,2469.914,2021-5-02T05:58:12Z
2021-05-02T04:00:06Z,42.805,6.029,13.2983,4.59986,2469.914,2021-5-02T06:01:16Z
2021-05-02T04:03:09Z,42.805,6.029,13.2981,4.59986,2469.96,2021-5-02T06:04:19Z
2021-05-02T04:06:12Z,42.805,6.029,13.2982,4.59986,2469.937,2021-5-02T06:07:22Z
2021-05-02T04:09:15Z,42.805,6.029,13.2982,4.59986,2469.9,2021-5-02T06:10:25Z
2021-05-02T04:12:18Z,42.805,6.029,13.2979,4.59986,2469.914,2021-5-02T06:13:28Z
2021-05-02T04:15:21Z,42.805,6.029,13.2984,4.59986,2469.9,2021-5-02T06:16:31Z
2021-05-02T04:18:24Z,42.805,6.029,13.2981,4.59986,2469.89,2021-5-02T06:19:34Z
2021-05-02T04:21:27Z,42.805,6.029,13.2982,4.59986,2469.927,2021-5-02T06:22:37Z
2021-05-02T04:24:31Z,42.805,6.029,13.2983,4.59986,2469.89,2021-5-02T06:25:40Z
2021-05-02T04:27:34Z,42.805,6.029,13.2981,4.59986,2469.876,2021-5-02T06:28:44Z
2021-05-02T04:30:37Z,42.805,6.029,13.2983,4.59986,2469.914,2021-5-02T06:31:47Z
2021-05-02T04:33:40Z,42.805,6.029,13.2977,4.59987,2469.9,2021-5-02T06:34:50Z
2021-05-02T04:36:43Z,42.805,6.029,13.2979,4.59986,2469.9,2021-5-02T06:37:53Z
2021-05-02T04:39:46Z,42.805,6.029,13.2979,4.59986,2469.876,2021-5-02T06:40:56Z
2021-05-02T04:42:49Z,42.805,6.029,13.2978,4.59986,2469.9,2021-5-02T06:43:59Z
2021-05-02T04:45:52Z,42.805,6.029,13.2982,4.59986,2469.89,2021-5-02T06:47:02Z
2021-05-02T04:48:55Z,42.805,6.029,13.2982,4.59986,2469.9,2021-5-02T06:50:05Z
2021-05-02T04:51:59Z,42.805,6.029,13.2985,4.59988,2469.9,2021-5-02T06:53:09Z
2021-05-02T04:55:02Z,42.805,6.029,13.2982,4.59988,2469.923,2021-5-02T06:56:12Z
2021-05-02T04:58:05Z,42.805,6.029,13.2978,4.59986,2469.9,2021-5-02T06:59:15Z
2021-05-02T05:01:08Z,42.805,6.029,13.2979,4.59988,2469.867,2021-5-02T07:02:18Z
2021-05-02T05:04:11Z,42.805,6.029,13.2982,4.59986,2469.876,2021-5-02T07:05:21Z
2021-05-02T05:07:14Z,42.805,6.029,13.2985,4.59986,2469.923,2021-5-02T07:08:24Z
2021-05-02T05:10:17Z,42.805,6.029,13.2982,4.59986,2469.9,2021-5-02T07:11:27Z
2021-05-02T05:13:20Z,42.805,6.029,13.2982,4.59986,2469.876,2021-5-02T07:14:30Z
2021-05-02T05:16:24Z,42.805,6.029,13.2983,4.59986,2469.914,2021-5-02T07:17:33Z
2021-05-02T05:19:27Z,42.805,6.029,13.2979,4.59986,2469.876,2021-5-02T07:20:37Z
2021-05-02T05:22:30Z,42.805,6.029,13.2982,4.59986,2469.89,2021-5-02T07:23:40Z
2021-05-02T05:25:33Z,42.805,6.029,13.2982,4.59988,2469.9,2021-5-02T07:26:43Z
2021-05-02T05:28:36Z,42.805,6.029,13.2982,4.59986,2469.9,2021-5-02T07:29:46Z
2021-05-02T05:31:39Z,42.805,6.029,13.2982,4.59986,2469.853,2021-5-02T07:32:49Z
2021-05-02T05:34:42Z,42.805,6.029,13.2986,4.59986,2469.876,2021-5-02T07:35:52Z
2021-05-02T05:37:45Z,42.805,6.029,13.2983,4.59986,2469.853,2021-5-02T07:38:55Z
2021-05-02T05:40:48Z,42.805,6.029,13.2982,4.59986,2469.867,2021-5-02T07:41:58Z
2021-05-02T05:43:52Z,42.805,6.029,13.2979,4.59987,2469.867,2021-5-02T07:45:02Z
2021-05-02T05:46:55Z,42.805,6.029,13.2981,4.59988,2469.876,2021-5-02T07:48:05Z
2021-05-02T05:49:58Z,42.805,6.029,13.2982,4.59988,2469.876,2021-5-02T07:51:08Z
2021-05-02T05:53:01Z,42.805,6.029,13.2984,4.59988,2469.89,2021-5-02T07:54:11Z
2021-05-02T05:56:04Z,42.805,6.029,13.2984,4.59988,2469.863,2021-5-02T07:57:14Z
2021-05-02T05:59:07Z,42.805,6.029,13.2983,4.59988,2469.89,2021-5-02T08:00:17Z
2021-05-02T06:02:10Z,42.805,6.029,13.2982,4.59986,2469.89,2021-5-02T08:03:20Z
2021-05-02T06:05:13Z,42.805,6.029,13.2979,4.59986,2469.876,2021-5-02T08:06:23Z
2021-05-02T06:08:17Z,42.805,6.029,13.2980,4.59988,2469.844,2021-5-02T08:09:26Z
2021-05-02T06:11:20Z,42.805,6.029,13.2980,4.59986,2469.853,2021-5-02T08:12:30Z
2021-05-02T06:14:23Z,42.805,6.029,13.2980,4.59986,2469.867,2021-5-02T08:15:33Z
2021-05-02T06:17:26Z,42.805,6.029,13.2982,4.59986,2469.83,2021-5-02T08:18:36Z
2021-05-02T06:20:29Z,42.805,6.029,13.2979,4.59989,2469.83,2021-5-02T08:21:39Z
2021-05-02T06:23:32Z,42.805,6.029,13.2980,4.59987,2469.867,2021-5-02T08:24:42Z
2021-05-02T06:26:35Z,42.805,6.029,13.2980,4.59986,2469.853,2021-5-02T08:27:45Z
2021-05-02T06:29:38Z,42.805,6.029,13.2982,4.59988,2469.83,2021-5-02T08:30:48Z
2021-05-02T06:32:41Z,42.805,6.029,13.2980,4.59987,2469.867,2021-5-02T08:33:51Z
2021-05-02T06:35:45Z,42.805,6.029,13.2980,4.59988,2469.853,2021-5-02T08:36:55Z
2021-05-02T06:38:48Z,42.805,6.029,13.2984,4.59986,2469.83,2021-5-02T08:39:58Z
2021-05-02T06:41:51Z,42.805,6.029,13.2981,4.59988,2469.853,2021-5-02T08:43:01Z
2021-05-02T06:44:54Z,42.805,6.029,13.2984,4.59986,2469.853,2021-5-02T08:46:04Z
2021-05-02T06:47:57Z,42.805,6.029,13.2983,4.59987,2469.853,2021-5-02T08:49:07Z
2021-05-02T06:51:00Z,42.805,6.029,13.2982,4.59987,2469.867,2021-5-02T08:52:10Z
2021-05-02T06:54:03Z,42.805,6.029,13.2982,4.59988,2469.876,2021-5-02T08:55:13Z
2021-05-02T06:57:06Z,42.805,6.029,13.2982,4.59986,2469.83,2021-5-02T08:58:16Z
2021-05-02T07:00:10Z,42.805,6.029,13.2978,4.59986,2469.83,2021-5-02T09:01:19Z
2021-05-02T07:03:13Z,42.805,6.029,13.2987,4.59987,2469.853,2021-5-02T09:04:23Z
2021-05-02T07:06:16Z,42.805,6.029,13.2981,4.59986,2469.867,2021-5-02T09:07:26Z
2021-05-02T07:09:19Z,42.805,6.029,13.2983,4.59987,2469.83,2021-5-02T09:10:29Z
2021-05-02T07:12:22Z,42.805,6.029,13.2978,4.59987,2469.844,2021-5-02T09:13:32Z
2021-05-02T07:15:25Z,42.805,6.029,13.2983,4.59988,2469.876,2021-5-02T09:16:35Z
2021-05-02T07:18:28Z,42.805,6.029,13.2982,4.59989,2469.867,2021-5-02T09:19:38Z
2021-05-02T07:21:31Z,42.805,6.029,13.2979,4.59988,2469.853,2021-5-02T09:22:41Z
2021-05-02T07:24:34Z,42.805,6.029,13.2983,4.59990,2469.853,2021-5-02T09:25:44Z
2021-05-02T07:27:38Z,42.805,6.029,13.2983,4.59987,2469.844,2021-5-02T09:28:48Z
2021-05-02T07:30:41Z,42.805,6.029,13.2980,4.59988,2469.853,2021-5-02T09:31:51Z
2021-05-02T07:33:44Z,42.805,6.029,13.2985,4.59988,2469.89,2021-5-02T09:34:54Z
2021-05-02T07:36:47Z,42.805,6.029,13.2983,4.59988,2469.83,2021-5-02T09:37:57Z
2021-05-02T07:39:50Z,42.805,6.029,13.2983,4.59989,2469.867,2021-5-02T09:41:00Z
2021-05-02T07:42:53Z,42.805,6.029,13.2985,4.59987,2469.876,2021-5-02T09:44:03Z
2021-05-02T07:45:56Z,42.805,6.029,13.2977,4.59991,2469.853,2021-5-02T09:47:06Z
2021-05-02T07:48:59Z,42.805,6.029,13.2982,4.59988,2469.867,2021-5-02T09:50:09Z
2021-05-02T07:52:03Z,42.805,6.029,13.2980,4.59988,2469.867,2021-5-02T09:53:13Z
2021-05-02T07:55:06Z,42.805,6.029,13.2986,4.59988,2469.876,2021-5-02T09:56:16Z
2021-05-02T07:58:09Z,42.805,6.029,13.2985,4.59988,2469.806,2021-5-02T09:59:19Z
2021-05-02T08:01:12Z,42.805,6.029,13.2981,4.59989,2469.876,2021-5-02T10:02:22Z
2021-05-02T08:04:15Z,42.805,6.029,13.2986,4.59988,2469.89,2021-5-02T10:05:25Z
2021-05-02T08:07:18Z,42.805,6.029,13.2983,4.59991,2469.876,2021-5-02T10:08:28Z
2021-05-02T08:10:21Z,42.805,6.029,13.2984,4.59990,2469.867,2021-5-02T10:11:31Z
2021-05-02T08:13:24Z,42.805,6.029,13.2983,4.59988,2469.89,2021-5-02T10:14:34Z
2021-05-02T08:16:27Z,42.805,6.029,13.2983,4.59988,2469.83,2021-5-02T10:17:37Z
2021-05-02T08:19:31Z,42.805,6.029,13.2984,4.59988,2469.853,2021-5-02T10:20:41Z
2021-05-02T08:22:34Z,42.805,6.029,13.2984,4.59988,2469.89,2021-5-02T10:23:44Z
2021-05-02T08:25:37Z,42.805,6.029,13.2983,4.59988,2469.89,2021-5-02T10:26:47Z
2021-05-02T08:28:40Z,42.805,6.029,13.2982,4.59988,2469.9,2021-5-02T10:29:50Z
2021-05-02T08:31:43Z,42.805,6.029,13.2982,4.59988,2469.839,2021-5-02T10:32:53Z
2021-05-02T08:34:46Z,42.805,6.029,13.2979,4.59987,2469.876,2021-5-02T10:35:56Z
2021-05-02T08:37:49Z,42.805,6.029,13.2983,4.59990,2469.853,2021-5-02T10:38:59Z
2021-05-02T08:40:52Z,42.805,6.029,13.2985,4.59988,2469.89,2021-5-02T10:42:02Z
2021-05-02T08:43:56Z,42.805,6.029,13.2983,4.59988,2469.876,2021-5-02T10:45:06Z
2021-05-02T08:46:59Z,42.805,6.029,13.2982,4.59989,2469.853,2021-5-02T10:48:09Z
2021-05-02T08:50:02Z,42.805,6.029,13.2983,4.59990,2469.853,2021-5-02T10:51:12Z
2021-05-02T08:53:05Z,42.805,6.029,13.2986,4.59987,2469.876,2021-5-02T10:54:15Z
2021-05-02T08:56:08Z,42.805,6.029,13.2985,4.59987,2469.876,2021-5-02T10:57:18Z
2021-05-02T08:59:11Z,42.805,6.029,13.2979,4.59988,2469.914,2021-5-02T11:00:21Z
2021-05-02T09:02:14Z,42.805,6.029,13.2984,4.59988,2469.89,2021-5-02T11:03:24Z
2021-05-02T09:05:17Z,42.805,6.029,13.2983,4.59990,2469.867,2021-5-02T11:06:27Z
2021-05-02T09:08:21Z,42.805,6.029,13.2982,4.59989,2469.876,2021-5-02T11:09:31Z
2021-05-02T09:11:24Z,42.805,6.029,13.2983,4.59989,2469.89,2021-5-02T11:12:34Z
2021-05-02T09:14:27Z,42.805,6.029,13.2983,4.59989,2469.867,2021-5-02T11:15:37Z
2021-05-02T09:17:30Z,42.805,6.029,13.2984,4.59989,2469.876,2021-5-02T11:18:40Z
2021-05-02T09:20:33Z,42.805,6.029,13.2986,4.59988,2469.89,2021-5-02T11:21:43Z
2021-05-02T09:23:36Z,42.805,6.029,13.2982,4.59990,2469.876,2021-5-02T11:24:46Z
2021-05-02T09:26:39Z,42.805,6.029,13.2982,4.59988,2469.9,2021-5-02T11:27:49Z
2021-05-02T09:29:42Z,42.805,6.029,13.2982,4.59989,2469.876,2021-5-02T11:30:52Z
2021-05-02T09:32:46Z,42.805,6.029,13.2984,4.59988,2469.853,2021-5-02T11:33:56Z
2021-05-02T09:35:49Z,42.805,6.029,13.2986,4.59990,2469.867,2021-5-02T11:36:59Z
2021-05-02T09:38:52Z,42.805,6.029,13.2984,4.59989,2469.876,2021-5-02T11:40:02Z
2021-05-02T09:41:55Z,42.805,6.029,13.2983,4.59988,2469.9,2021-5-02T11:43:05Z
2021-05-02T09:44:58Z,42.805,6.029,13.2982,4.59989,2469.876,2021-5-02T11:46:08Z
2021-05-02T09:48:01Z,42.805,6.029,13.2984,4.59991,2469.867,2021-5-02T11:49:11Z
2021-05-02T09:51:04Z,42.805,6.029,13.2982,4.59989,2469.853,2021-5-02T11:52:14Z
2021-05-02T09:54:07Z,42.805,6.029,13.2979,4.59990,2469.914,2021-5-02T11:55:17Z
2021-05-02T09:57:11Z,42.805,6.029,13.2988,4.59990,2469.876,2021-5-02T11:58:21Z
2021-05-02T10:00:14Z,42.805,6.029,13.2983,4.59989,2469.863,2021-5-02T12:01:24Z
2021-05-02T10:03:17Z,42.805,6.029,13.2983,4.59989,2469.876,2021-5-02T12:04:27Z
2021-05-02T10:06:20Z,42.805,6.029,13.2982,4.59991,2469.89,2021-5-02T12:07:30Z
2021-05-02T10:09:23Z,42.805,6.029,13.2990,4.59989,2469.9,2021-5-02T12:10:33Z
2021-05-02T10:12:26Z,42.805,6.029,13.2982,4.59990,2469.876,2021-5-02T12:13:36Z
2021-05-02T10:15:29Z,42.805,6.029,13.2985,4.59989,2469.89,2021-5-02T12:16:39Z
2021-05-02T10:18:32Z,42.805,6.029,13.2986,4.59990,2469.9,2021-5-02T12:19:42Z
2021-05-02T10:21:36Z,42.805,6.029,13.2982,4.59990,2469.867,2021-5-02T12:22:45Z
2021-05-02T10:24:39Z,42.805,6.029,13.2982,4.59991,2469.89,2021-5-02T12:25:49Z
2021-05-02T10:27:42Z,42.805,6.029,13.2982,4.59988,2469.9,2021-5-02T12:28:52Z
2021-05-02T10:30:45Z,42.805,6.029,13.2984,4.59991,2469.9,2021-5-02T12:31:55Z
2021-05-02T10:33:48Z,42.805,6.029,13.2982,4.59990,2469.9,2021-5-02T12:34:58Z
2021-05-02T10:36:51Z,42.805,6.029,13.2986,4.59990,2469.914,2021-5-02T12:38:01Z
2021-05-02T10:39:54Z,42.805,6.029,13.2988,4.59990,2469.89,2021-5-02T12:41:04Z
2021-05-02T10:42:57Z,42.805,6.029,13.2982,4.59990,2469.914,2021-5-02T12:44:07Z
2021-05-02T10:46:00Z,42.805,6.029,13.2984,4.59988,2469.876,2021-5-02T12:47:10Z
2021-05-02T10:49:04Z,42.805,6.029,13.2984,4.59989,2469.9,2021-5-02T12:50:14Z
2021-05-02T10:52:07Z,42.805,6.029,13.2982,4.59988,2469.9,2021-5-02T12:53:17Z
2021-05-02T10:55:10Z,42.805,6.029,13.2983,4.59989,2469.9,2021-5-02T12:56:20Z
2021-05-02T10:58:13Z,42.805,6.029,13.2982,4.59989,2469.914,2021-5-02T12:59:23Z
2021-05-02T11:01:16Z,42.805,6.029,13.2983,4.59989,2469.9,2021-5-02T13:02:26Z
2021-05-02T11:04:19Z,42.805,6.029,13.2989,4.59989,2469.876,2021-5-02T13:05:29Z
2021-05-02T11:07:22Z,42.805,6.029,13.2983,4.59989,2469.9,2021-5-02T13:08:32Z
2021-05-02T11:10:25Z,42.805,6.029,13.2981,4.59991,2469.914,2021-5-02T13:11:35Z
2021-05-02T11:13:29Z,42.805,6.029,13.2980,4.59991,2469.876,2021-5-02T13:14:39Z
2021-05-02T11:16:32Z,42.805,6.029,13.2986,4.59990,2469.89,2021-5-02T13:17:42Z
2021-05-02T11:19:35Z,42.805,6.029,13.2982,4.59988,2469.9,2021-5-02T13:20:45Z
2021-05-02T11:22:38Z,42.805,6.029,13.2980,4.59990,2469.9,2021-5-02T13:23:48Z
2021-05-02T11:25:41Z,42.805,6.029,13.2985,4.59989,2469.89,2021-5-02T13:26:51Z
2021-05-02T11:28:44Z,42.805,6.029,13.2984,4.59988,2469.914,2021-5-02T13:29:54Z
2021-05-02T11:31:47Z,42.805,6.029,13.2981,4.59991,2469.876,2021-5-02T13:32:57Z
2021-05-02T11:34:50Z,42.805,6.029,13.2985,4.59988,2469.876,2021-5-02T13:36:00Z
2021-05-02T11:37:54Z,42.805,6.029,13.2983,4.59990,2469.9,2021-5-02T13:39:04Z
2021-05-02T11:40:57Z,42.805,6.029,13.2983,4.59990,2469.844,2021-5-02T13:42:07Z
2021-05-02T11:44:00Z,42.805,6.029,13.2986,4.59988,2469.9,2021-5-02T13:45:10Z
2021-05-02T11:47:03Z,42.805,6.029,13.2982,4.59990,2469.867,2021-5-02T13:48:13Z
2021-05-02T11:50:06Z,42.805,6.029,13.2982,4.59991,2469.89,2021-5-02T13:51:16Z
2021-05-02T11:53:09Z,42.805,6.029,13.2983,4.59989,2469.876,2021-5-02T13:54:19Z
2021-05-02T11:56:12Z,42.805,6.029,13.2983,4.59989,2469.876,2021-5-02T13:57:22Z
2021-05-02T11:59:15Z,42.805,6.029,13.2983,4.59990,2469.89,2021-5-02T14:00:25Z
2021-05-02T12:02:19Z,42.805,6.029,13.2986,4.59990,2469.876,2021-5-02T14:03:29Z
2021-05-02T12:05:22Z,42.805,6.029,13.2982,4.59990,2469.914,2021-5-02T14:06:32Z
2021-05-02T12:08:25Z,42.805,6.029,13.2982,4.59989,2469.876,2021-5-02T14:09:35Z
2021-05-02T12:11:28Z,42.805,6.029,13.2983,4.59988,2469.853,2021-5-02T14:12:38Z
2021-05-02T12:14:31Z,42.805,6.029,13.2983,4.59989,2469.876,2021-5-02T14:15:41Z
2021-05-02T12:17:34Z,42.805,6.029,13.2983,4.59989,2469.853,2021-5-02T14:18:44Z
2021-05-02T12:20:37Z,42.805,6.029,13.2984,4.59989,2469.89,2021-5-02T14:21:47Z
2021-05-02T12:23:40Z,42.805,6.029,13.2982,4.59991,2469.876,2021-5-02T14:24:50Z
2021-05-02T12:26:44Z,42.805,6.029,13.2981,4.59989,2469.853,2021-5-02T14:27:54Z
2021-05-02T12:29:47Z,42.805,6.029,13.2982,4.59988,2469.876,2021-5-02T14:30:57Z
2021-05-02T12:32:50Z,42.805,6.029,13.2983,4.59989,2469.853,2021-5-02T14:34:00Z
2021-05-02T12:35:53Z,42.805,6.029,13.2983,4.59989,2469.863,2021-5-02T14:37:03Z
2021-05-02T12:38:56Z,42.805,6.029,13.2985,4.59991,2469.876,2021-5-02T14:40:06Z
2021-05-02T12:41:59Z,42.805,6.029,13.2981,4.59988,2469.876,2021-5-02T14:43:09Z
2021-05-02T12:45:02Z,42.805,6.029,13.2983,4.59988,2469.9,2021-5-02T14:46:12Z
2021-05-02T12:48:05Z,42.805,6.029,13.2981,4.59988,2469.853,2021-5-02T14:49:15Z
2021-05-02T12:51:09Z,42.805,6.029,13.2982,4.59989,2469.853,2021-5-02T14:52:19Z
2021-05-02T12:54:12Z,42.805,6.029,13.2983,4.59988,2469.853,2021-5-02T14:55:22Z
2021-05-02T12:57:15Z,42.805,6.029,13.2982,4.59988,2469.83,2021-5-02T14:58:25Z
2021-05-02T13:00:18Z,42.805,6.029,13.2983,4.59988,2469.876,2021-5-02T15:01:28Z
2021-05-02T13:03:21Z,42.805,6.029,13.2982,4.59989,2469.853,2021-5-02T15:04:31Z
2021-05-02T13:06:24Z,42.805,6.029,13.2983,4.59990,2469.83,2021-5-02T15:07:34Z
2021-05-02T13:09:27Z,42.805,6.029,13.2985,4.59988,2469.867,2021-5-02T15:10:37Z
2021-05-02T13:12:30Z,42.805,6.029,13.2983,4.59990,2469.844,2021-5-02T15:13:40Z
2021-05-02T13:15:34Z,42.805,6.029,13.2983,4.59988,2469.89,2021-5-02T15:16:44Z
2021-05-02T13:18:37Z,42.805,6.029,13.2983,4.59991,2469.853,2021-5-02T15:19:47Z
2021-05-02T13:21:40Z,42.805,6.029,13.2986,4.59989,2469.853,2021-5-02T15:22:50Z
2021-05-02T13:24:43Z,42.805,6.029,13.2986,4.59989,2469.844,2021-5-02T15:25:53Z
2021-05-02T13:27:46Z,42.805,6.029,13.2982,4.59988,2469.839,2021-5-02T15:28:56Z
2021-05-02T13:30:49Z,42.805,6.029,13.2985,4.59989,2469.783,2021-5-02T15:31:59Z
2021-05-02T13:33:52Z,42.805,6.029,13.2983,4.59988,2469.853,2021-5-02T15:35:02Z
2021-05-02T13:36:55Z,42.805,6.029,13.2982,4.59988,2469.867,2021-5-02T15:38:05Z
2021-05-02T13:39:59Z,42.805,6.029,13.2984,4.59989,2469.867,2021-5-02T15:41:09Z
2021-05-02T13:43:02Z,42.805,6.029,13.2984,4.59988,2469.876,2021-5-02T15:44:12Z
2021-05-02T13:46:05Z,42.805,6.029,13.2983,4.59989,2469.853,2021-5-02T15:47:15Z
2021-05-02T13:49:08Z,42.805,6.029,13.2982,4.59989,2469.853,2021-5-02T15:50:18Z
2021-05-02T13:52:11Z,42.805,6.029,13.2984,4.59988,2469.83,2021-5-02T15:53:21Z
2021-05-02T13:55:14Z,42.805,6.029,13.2983,4.59989,2469.867,2021-5-02T15:56:24Z
2021-05-02T13:58:17Z,42.805,6.029,13.2988,4.59989,2469.853,2021-5-02T15:59:27Z
2021-05-02T14:01:20Z,42.805,6.029,13.2988,4.59988,2469.844,2021-5-02T16:02:30Z
2021-05-02T14:04:24Z,42.805,6.029,13.2985,4.59988,2469.83,2021-5-02T16:05:34Z
2021-05-02T14:07:27Z,42.805,6.029,13.2983,4.59989,2469.853,2021-5-02T16:08:37Z
2021-05-02T14:10:30Z,42.805,6.029,13.2984,4.59991,2469.853,2021-5-02T16:11:40Z
2021-05-02T14:13:33Z,42.805,6.029,13.2984,4.59988,2469.853,2021-5-02T16:14:43Z
2021-05-02T14:16:36Z,42.805,6.029,13.2983,4.59990,2469.83,2021-5-02T16:17:46Z
2021-05-02T14:19:39Z,42.805,6.029,13.2984,4.59990,2469.83,2021-5-02T16:20:49Z
2021-05-02T14:22:42Z,42.805,6.029,13.2982,4.59990,2469.844,2021-5-02T16:23:52Z
2021-05-02T14:25:45Z,42.805,6.029,13.2986,4.59989,2469.83,2021-5-02T16:26:55Z
2021-05-02T14:28:49Z,42.805,6.029,13.2984,4.59991,2469.844,2021-5-02T16:29:59Z
2021-05-02T14:31:52Z,42.805,6.029,13.2982,4.59989,2469.853,2021-5-02T16:33:02Z
2021-05-02T14:34:55Z,42.805,6.029,13.2986,4.59988,2469.806,2021-5-02T16:36:05Z
2021-05-02T14:37:58Z,42.805,6.029,13.2983,4.59988,2469.844,2021-5-02T16:39:08Z
2021-05-02T14:41:01Z,42.805,6.029,13.2983,4.59990,2469.83,2021-5-02T16:42:11Z
2021-05-02T14:44:04Z,42.805,6.029,13.2981,4.59988,2469.853,2021-5-02T16:45:14Z
2021-05-02T14:47:07Z,42.805,6.029,13.2987,4.59990,2469.83,2021-5-02T16:48:17Z
2021-05-02T14:50:10Z,42.805,6.029,13.2982,4.59989,2469.876,2021-5-02T16:51:20Z
2021-05-02T14:53:13Z,42.805,6.029,13.2980,4.59989,2469.83,2021-5-02T16:54:23Z
2021-05-02T14:56:17Z,42.805,6.029,13.2986,4.59989,2469.821,2021-5-02T16:57:27Z
2021-05-02T14:59:20Z,42.805,6.029,13.2983,4.59990,2469.806,2021-5-02T17:00:30Z
2021-05-02T15:02:23Z,42.805,6.029,13.2985,4.59989,2469.867,2021-5-02T17:03:33Z
2021-05-02T15:05:26Z,42.805,6.029,13.2986,4.59988,2469.853,2021-5-02T17:06:36Z
2021-05-02T15:08:29Z,42.805,6.029,13.2982,4.59990,2469.83,2021-5-02T17:09:39Z
2021-05-02T15:11:32Z,42.805,6.029,13.2987,4.59988,2469.83,2021-5-02T17:12:42Z
2021-05-02T15:14:35Z,42.805,6.029,13.2982,4.59989,2469.806,2021-5-02T17:15:45Z